Flag for U.S.A. Weather past 2 weeks in Avalon (Santa Catalina Island), California, U.S.A.

Now
65 °F

Clear.


Feels Like: 65 °F
Forecast: 68 / 78 °F
Wind: 13 mph from Southwest

Location: Catalina Airport

Current Time: Sep 17, 2014 at 11:27:39 PM

Latest Report: Sep 17, 2014 at 10:51 PM


Visibility: 10 mi

Pressure: 29.76 "Hg

Humidity: 81%

Dew point: 59 °F

Location of Avalon (Santa Catalina Island)Location

Historic Weather in Avalon (Santa Catalina Island) — Graph

°F

Avalon (Santa Catalina Island) temperature yesterday

Maximum temperature yesterday: 94 °F (at 10:51 AM)
Minimum temperature yesterday: 82 °F (at 3:51 AM)
Average temperature yesterday: 88 °F

Past Weeks' High & Low Weather Summary

 TemperatureHumidityPressure
High96 °F (Sep 14, 11:51 AM)97% (Sep 2, 10:51 PM)29.93 "Hg (Sep 2, 10:51 PM)
Low58 °F (Sep 4, 10:00 PM)4% (Sep 10, 7:51 PM)29.68 "Hg (Sep 14, 5:51 PM)
Average77 °F41%29.78 "Hg
* Reported Sep 2 9:51 PM — Sep 17 9:51 PM, Avalon (Santa Catalina Island), Weather by CustomWeather, © 2014

Note: Actual official high and low records may vary slightly from our data, if they occured in-between our weather recording intervals... More about our weather records

Advertising

Avalon (Santa Catalina Island) weather history for previous 24 hours

 ConditionsComfort  
Time TempWeatherWind HumidityBarometerVisibility
9:51 PM
Sep 17
65 °FClear.12 mph81%29.76 "Hg10 mi
8:51 PM67 °FClear.16 mph73%29.75 "Hg10 mi
7:51 PM66 °FSunny.10 mph81%29.73 "Hg10 mi
6:51 PM69 °FSunny.14 mph73%29.72 "Hg10 mi
5:51 PM73 °FSunny.15 mph62%29.71 "Hg10 mi
4:51 PM74 °FSunny.14 mph53%29.71 "Hg10 mi
3:51 PM77 °FSunny.14 mph54%29.71 "Hg10 mi
2:51 PM79 °FSunny.14 mph44%29.71 "Hg10 mi
1:51 PM80 °FSunny.14 mph42%29.72 "Hg10 mi
12:51 PM82 °FSunny.10 mph49%29.73 "Hg10 mi
11:51 AM87 °FSunny.5 mph40%29.72 "Hg10 mi
10:51 AM89 °FSunny.6 mph35%29.72 "Hg10 mi
9:51 AM88 °FSunny.7 mph35%29.72 "Hg10 mi
8:51 AM87 °FSunny.7 mph35%29.71 "Hg10 mi
7:51 AM86 °FSunny.7 mph36%29.71 "Hg10 mi
6:51 AM82 °FClear.5 mph38%29.70 "Hg10 mi
5:51 AM83 °FClear.No wind33%29.68 "Hg10 mi
4:51 AM83 °FClear.5 mph37%29.68 "Hg10 mi
3:51 AM84 °FClear.5 mph31%29.68 "Hg10 mi
2:51 AM84 °FClear.5 mph30%29.69 "Hg10 mi
1:51 AM85 °FClear.7 mph22%29.70 "Hg10 mi
12:51 AM87 °FClear.5 mph19%29.70 "Hg10 mi
11:51 PM
Sep 16
88 °FClear.5 mph18%29.69 "Hg10 mi
Weather by CustomWeather, © 2014

See weather overviewHow to use our weather pages